STARLINK-34042 (63838 NORAD) Tracking and Keplerian Element Data

This shows tracking and keplerian element data for the satellite.

Feedback or suggestion? Click here.




ElementValue
Catalog63838
NameSTARLINK-34042
Epoch Orbit3579
Epoch Day353.76855578
Epoch Year2025
RAAN165.4113
Inclination42.9979
Eccentricity0.0001434
Argument of Perigee267.25
Mean Anonmoly92.8187
Mean Motion15.27592603
Decay Rate0.00012788
L11 63838U 25093C 25353.76855578 .00012788 00000+0 47322-3 0 9992
L22 63838 42.9979 165.4113 0001434 267.2500 92.8187 15.27592603 35794



Live tracking and technical data element details for STARLINK-34042 (NORAD 63838). STARLINK-34042 can be tracked NOW for your location showing map with azimuth and elevation plus other details from your city location.







IsCatalogInMostPopularTable: catalog: 63838, numindb: 2
Update: records affected: 1



GetName: 63838 STARLINK-34042

Hit Count: updated at: Sat, 07 Feb 2026 08:08:14 GMT